CEB326 RPLL-RPVD

Flight info

Callsign CEB326
Flight time N/A
Altitude 33000
Route VERDE2V VERDE A461 SAJ W3 IOO B472 NANAS NANAS1W
Aircraft A320/M-SDE3FGHIRWY/LB1

Departure

Time N/A
Airport Ninoy Aquino International Airport (RPLL)

Arrival

Time 2026-04-22 13:15
Airport Sibulan Airport (RPVD)
Time Latitude Longitude Altitude Speed Heading
2026-04-22 12:21 14.06600 120.91231 15240 ft 368 kts 203°
2026-04-22 12:21 14.04148 120.90446 15755 ft 371 kts 190°
2026-04-22 12:22 14.01565 120.90271 16261 ft 374 kts 176°
2026-04-22 12:22 13.98988 120.90709 16780 ft 377 kts 166°
2026-04-22 12:22 13.96435 120.91374 17286 ft 380 kts 166°
2026-04-22 12:22 13.93864 120.92040 17806 ft 383 kts 166°
2026-04-22 12:23 13.91273 120.92705 18283 ft 386 kts 166°
2026-04-22 12:23 13.88659 120.93374 18702 ft 388 kts 166°
2026-04-22 12:23 13.86110 120.94310 19101 ft 392 kts 154°
2026-04-22 12:23 13.83660 120.95559 19508 ft 395 kts 154°
2026-04-22 12:24 13.81222 120.96815 19909 ft 398 kts 154°
2026-04-22 12:24 13.78747 120.98100 20316 ft 400 kts 154°
2026-04-22 12:24 13.76251 120.99402 20721 ft 403 kts 154°
2026-04-22 12:24 13.73739 121.00713 21118 ft 406 kts 154°
2026-04-22 12:25 13.71213 121.02029 21511 ft 408 kts 154°
2026-04-22 12:25 13.68670 121.03349 21895 ft 411 kts 154°
2026-04-22 12:25 13.66109 121.04674 22276 ft 414 kts 154°
2026-04-22 12:25 13.63527 121.06011 22669 ft 416 kts 154°
2026-04-22 12:26 13.60930 121.07356 23043 ft 419 kts 154°
2026-04-22 12:26 13.58321 121.08707 23411 ft 422 kts 154°
2026-04-22 12:26 13.55691 121.10071 23737 ft 424 kts 154°
2026-04-22 12:26 13.53051 121.11438 24054 ft 426 kts 154°
2026-04-22 12:27 13.50398 121.12809 24383 ft 428 kts 154°
2026-04-22 12:27 13.47736 121.14184 24710 ft 429 kts 154°
2026-04-22 12:27 13.45061 121.15566 25049 ft 431 kts 154°
2026-04-22 12:27 13.42383 121.16949 25381 ft 432 kts 154°
2026-04-22 12:28 13.39691 121.18341 25711 ft 434 kts 154°
2026-04-22 12:28 13.37030 121.19716 26036 ft 435 kts 154°
2026-04-22 12:28 13.34286 121.21134 26364 ft 437 kts 154°
2026-04-22 12:28 13.31599 121.22519 26680 ft 438 kts 154°
2026-04-22 12:29 13.28872 121.23923 26986 ft 440 kts 154°
2026-04-22 12:29 13.26130 121.25338 27292 ft 441 kts 154°
2026-04-22 12:29 13.23379 121.26760 27603 ft 443 kts 154°
2026-04-22 12:29 13.20618 121.28185 27907 ft 444 kts 154°
2026-04-22 12:30 13.15067 121.31051 28505 ft 448 kts 154°
2026-04-22 12:30 13.12277 121.32487 28801 ft 450 kts 154°
2026-04-22 12:30 13.09473 121.33927 29107 ft 451 kts 154°
2026-04-22 12:31 13.06657 121.35374 29392 ft 453 kts 154°
2026-04-22 12:31 13.03829 121.36828 29675 ft 455 kts 154°
2026-04-22 12:31 13.00996 121.38285 29949 ft 457 kts 154°
2026-04-22 12:31 12.98153 121.39749 30181 ft 458 kts 154°
2026-04-22 12:32 12.95298 121.41223 30396 ft 460 kts 154°
2026-04-22 12:32 12.89593 121.44165 30834 ft 463 kts 154°
2026-04-22 12:32 12.86706 121.45653 31041 ft 465 kts 154°
2026-04-22 12:33 12.83809 121.47140 31289 ft 465 kts 154°
2026-04-22 12:33 12.80917 121.48622 31622 ft 464 kts 154°
2026-04-22 12:33 12.78034 121.50100 31931 ft 463 kts 154°
2026-04-22 12:33 12.75153 121.51580 32237 ft 463 kts 154°
2026-04-22 12:34 12.72278 121.53060 32529 ft 463 kts 154°
2026-04-22 12:34 12.69397 121.54540 32820 ft 463 kts 154°
2026-04-22 12:34 12.63711 121.57458 32918 ft 449 kts 154°
2026-04-22 12:35 12.58153 121.60307 32912 ft 445 kts 154°
2026-04-22 12:35 12.52622 121.63143 32908 ft 445 kts 154°
2026-04-22 12:36 12.48021 121.65500 32908 ft 445 kts 154°
2026-04-22 12:36 12.42487 121.68337 32906 ft 445 kts 154°
2026-04-22 12:37 12.36946 121.71168 32900 ft 445 kts 154°
2026-04-22 12:37 12.31409 121.73995 32898 ft 445 kts 154°
2026-04-22 12:38 12.25875 121.76830 32893 ft 445 kts 154°
2026-04-22 12:38 12.20341 121.79661 32892 ft 445 kts 154°
2026-04-22 12:39 12.12032 121.83909 32892 ft 445 kts 154°
2026-04-22 12:40 12.06500 121.86740 32889 ft 445 kts 154°
2026-04-22 12:40 12.01005 121.89546 32888 ft 444 kts 154°
2026-04-22 12:41 11.95474 121.92368 32888 ft 444 kts 154°
2026-04-22 12:41 11.89943 121.95188 32886 ft 444 kts 154°
2026-04-22 12:42 11.84402 121.98006 32888 ft 444 kts 154°
2026-04-22 12:42 11.78857 122.00824 32890 ft 444 kts 154°
2026-04-22 12:43 11.73324 122.03641 32888 ft 444 kts 154°
2026-04-22 12:43 11.67799 122.06462 32888 ft 444 kts 154°
2026-04-22 12:44 11.62277 122.09273 32891 ft 444 kts 154°
2026-04-22 12:44 11.56781 122.12069 32893 ft 444 kts 154°
2026-04-22 12:45 11.51220 122.14900 32895 ft 444 kts 154°
2026-04-22 12:45 11.45698 122.17705 32897 ft 443 kts 154°
2026-04-22 12:46 11.40210 122.20491 32898 ft 443 kts 154°
2026-04-22 12:46 11.34691 122.23291 32903 ft 443 kts 154°
2026-04-22 12:47 11.29173 122.26088 32906 ft 443 kts 154°
2026-04-22 12:47 11.23650 122.28889 32909 ft 443 kts 154°
2026-04-22 12:48 11.18121 122.31692 32913 ft 444 kts 154°
2026-04-22 12:48 11.12591 122.34498 32916 ft 443 kts 154°
2026-04-22 12:49 11.07069 122.37297 32914 ft 443 kts 154°
2026-04-22 12:49 11.01549 122.40091 32910 ft 443 kts 154°
2026-04-22 12:50 10.96072 122.42865 32901 ft 443 kts 154°
2026-04-22 12:50 10.90553 122.45661 32897 ft 443 kts 154°
2026-04-22 12:51 10.85029 122.48445 32891 ft 443 kts 154°
2026-04-22 12:51 10.79536 122.51172 32544 ft 432 kts 155°
2026-04-22 12:51 10.76830 122.52457 32302 ft 427 kts 156°
2026-04-22 12:52 10.74139 122.53712 32052 ft 424 kts 156°
2026-04-22 12:52 10.72285 122.54563 31935 ft 418 kts 164°
2026-04-22 12:52 10.70615 122.55013 32807 ft 390 kts 168°
2026-04-22 12:52 10.68017 122.55845 33067 ft 398 kts 159°
2026-04-22 12:53 10.65454 122.57054 32816 ft 415 kts 153°
2026-04-22 12:53 10.62899 122.58482 32531 ft 421 kts 151°
2026-04-22 12:53 10.60355 122.59947 32039 ft 418 kts 152°
2026-04-22 12:53 10.57803 122.61356 31544 ft 416 kts 153°
2026-04-22 12:54 10.55225 122.62684 31062 ft 414 kts 154°
2026-04-22 12:54 10.52630 122.63942 30569 ft 412 kts 155°
2026-04-22 12:54 10.50029 122.65152 30100 ft 411 kts 155°
2026-04-22 12:54 10.47465 122.66324 29587 ft 409 kts 155°
2026-04-22 12:55 10.44881 122.67505 29133 ft 404 kts 155°
2026-04-22 12:55 10.42336 122.68682 28674 ft 400 kts 155°
2026-04-22 12:55 10.39822 122.69860 28243 ft 396 kts 154°
2026-04-22 12:55 10.37334 122.71035 27808 ft 392 kts 154°
2026-04-22 12:56 10.34873 122.72202 27363 ft 389 kts 154°
2026-04-22 12:56 10.32430 122.73360 26939 ft 386 kts 154°
2026-04-22 12:56 10.30009 122.74508 26507 ft 383 kts 154°
2026-04-22 12:56 10.27601 122.75650 26063 ft 381 kts 154°
2026-04-22 12:57 10.25208 122.76781 25630 ft 379 kts 154°
2026-04-22 12:57 10.22822 122.77906 25175 ft 377 kts 154°
2026-04-22 12:57 10.20441 122.79025 24722 ft 376 kts 154°
2026-04-22 12:57 10.18067 122.80140 24251 ft 376 kts 154°
2026-04-22 12:58 10.15692 122.81257 23785 ft 376 kts 154°
2026-04-22 12:58 10.13319 122.82375 23274 ft 376 kts 154°
2026-04-22 12:58 10.10951 122.83492 22774 ft 374 kts 154°
2026-04-22 12:58 10.08626 122.84587 22315 ft 372 kts 154°
2026-04-22 12:59 10.06281 122.85692 21849 ft 371 kts 154°
2026-04-22 12:59 10.03946 122.86793 21394 ft 370 kts 154°
2026-04-22 12:59 10.01620 122.87890 20938 ft 368 kts 154°
2026-04-22 12:59 9.99294 122.88989 20491 ft 367 kts 154°
2026-04-22 13:00 9.96980 122.90081 20042 ft 367 kts 155°
2026-04-22 13:00 9.94667 122.91171 19590 ft 366 kts 155°
2026-04-22 13:00 9.92357 122.92256 19144 ft 366 kts 155°
2026-04-22 13:00 9.90048 122.93338 18702 ft 366 kts 155°
2026-04-22 13:01 9.87741 122.94419 18258 ft 365 kts 156°
2026-04-22 13:01 9.85435 122.95502 17771 ft 365 kts 156°
2026-04-22 13:01 9.83153 122.96573 17323 ft 356 kts 156°
2026-04-22 13:01 9.80956 122.97623 16907 ft 344 kts 152°
2026-04-22 13:02 9.78994 122.98996 16506 ft 344 kts 138°
2026-04-22 13:02 9.77416 123.00822 16101 ft 344 kts 126°
2026-04-22 13:02 9.76044 123.02808 15700 ft 344 kts 125°
2026-04-22 13:02 9.74672 123.04793 15292 ft 344 kts 126°
2026-04-22 13:03 9.73300 123.06773 14890 ft 344 kts 126°
2026-04-22 13:03 9.71925 123.08757 14484 ft 343 kts 126°
2026-04-22 13:03 9.70571 123.10707 14086 ft 333 kts 126°
2026-04-22 13:03 9.69256 123.12596 13697 ft 323 kts 126°
2026-04-22 13:04 9.67975 123.14430 13282 ft 313 kts 126°
2026-04-22 13:04 9.66721 123.16225 12911 ft 312 kts 126°
2026-04-22 13:04 9.65468 123.18019 12524 ft 312 kts 126°
2026-04-22 13:04 9.64228 123.19794 12150 ft 312 kts 126°
2026-04-22 13:05 9.62973 123.21591 11773 ft 312 kts 126°
2026-04-22 13:05 9.61719 123.23393 11382 ft 313 kts 126°
2026-04-22 13:05 9.60467 123.25193 10988 ft 313 kts 126°
2026-04-22 13:05 9.59210 123.26998 10589 ft 313 kts 126°
2026-04-22 13:06 9.57960 123.28791 10342 ft 307 kts 126°
2026-04-22 13:06 9.56745 123.30536 10157 ft 300 kts 126°
2026-04-22 13:06 9.55543 123.32261 9781 ft 298 kts 126°
2026-04-22 13:06 9.54353 123.33966 9149 ft 294 kts 125°
2026-04-22 13:07 9.53186 123.35639 8693 ft 286 kts 125°
2026-04-22 13:07 9.52057 123.37257 8282 ft 276 kts 125°
2026-04-22 13:07 9.50961 123.38828 8032 ft 275 kts 125°
2026-04-22 13:07 9.49836 123.40437 8014 ft 282 kts 125°
2026-04-22 13:08 9.48700 123.42064 7617 ft 283 kts 125°
2026-04-22 13:08 9.47563 123.43694 6923 ft 283 kts 124°
2026-04-22 13:08 9.46449 123.45293 6313 ft 281 kts 124°
2026-04-22 13:08 9.45338 123.46885 5821 ft 272 kts 124°
2026-04-22 13:09 9.44264 123.48421 5375 ft 263 kts 124°
2026-04-22 13:09 9.43219 123.49909 4948 ft 257 kts 124°
2026-04-22 13:09 9.42162 123.51373 4502 ft 259 kts 130°
2026-04-22 13:09 9.40709 123.52454 4061 ft 264 kts 156°
2026-04-22 13:10 9.38898 123.52777 3597 ft 269 kts 183°
2026-04-22 13:10 9.37100 123.52243 3138 ft 273 kts 206°
2026-04-22 13:10 9.35425 123.51356 2996 ft 269 kts 206°
2026-04-22 13:10 9.33899 123.50388 3002 ft 251 kts 223°
2026-04-22 13:11 9.32872 123.49020 2795 ft 246 kts 245°
2026-04-22 13:11 9.32478 123.47359 2463 ft 238 kts 271°
2026-04-22 13:11 9.32567 123.45709 2325 ft 234 kts 275°
2026-04-22 13:11 9.32665 123.44094 2207 ft 224 kts 275°
2026-04-22 13:12 9.32750 123.42564 2097 ft 214 kts 274°
2026-04-22 13:12 9.32830 123.41072 2005 ft 210 kts 274°
2026-04-22 13:12 9.32881 123.40115 1841 ft 200 kts 275°
2026-04-22 13:12 9.32953 123.38767 1550 ft 185 kts 275°
2026-04-22 13:13 9.33039 123.37132 1261 ft 163 kts 275°
2026-04-22 13:13 9.33099 123.36028 1033 ft 155 kts 273°
2026-04-22 13:13 9.33157 123.34960 827 ft 149 kts 273°
2026-04-22 13:13 9.33213 123.33930 630 ft 144 kts 272°
2026-04-22 13:14 9.33269 123.32923 427 ft 142 kts 273°
2026-04-22 13:14 9.33335 123.31931 240 ft 141 kts 272°
2026-04-22 13:14 9.33372 123.30949 48 ft 139 kts 273°
2026-04-22 13:14 9.33418 123.30120 30 ft 82 kts 273°
2026-04-22 13:15 9.33440 123.29797 39 ft 31 kts 275°
2026-04-22 13:15 9.33451 123.29661 43 ft 12 kts 272°
2026-04-22 13:15 9.33450 123.29586 46 ft 9 kts 270°
2026-04-22 13:15 9.33450 123.29549 48 ft 6 kts 271°
2026-04-22 13:16 9.33452 123.29475 51 ft 10 kts 271°
2026-04-22 13:16 9.33449 123.29433 52 ft 3 kts 255°
2026-04-22 13:16 9.33452 123.29424 52 ft 0 kts 307°
2026-04-22 13:16 9.33458 123.29431 47 ft 3 kts 49°
2026-04-22 13:17 9.33457 123.29486 47 ft 9 kts 92°
2026-04-22 13:17 9.33453 123.29581 46 ft 20 kts 93°
2026-04-22 13:17 9.33446 123.29691 42 ft 8 kts 101°
2026-04-22 13:17 9.33404 123.29711 41 ft 6 kts 201°
2026-04-22 13:18 9.33382 123.29688 41 ft 3 kts 233°
2026-04-22 13:18 9.33375 123.29678 42 ft 5 kts 235°
2026-04-22 13:18 9.33368 123.29630 44 ft 6 kts 279°
2026-04-22 13:18 9.33361 123.29602 45 ft 4 kts 225°
2026-04-22 13:19 9.33315 123.29580 45 ft 2 kts 192°